Tony, WI

9:34 AM CST on February 20, 2017 (GMT -0600)
Rusk County

Weather History for KRCX - August, 2013

Change the Weather History Date:

Friday, August 9, 2013

  Actual Average (KPBH) Record (KPBH)
Temperature  
Mean Temperature 64 °F -  
Max Temperature 73 °F 74 °F 89 °F (2010)
Min Temperature 56 °F 53 °F 5 °F (1996)
Degree Days  
Heating Degree Days 1    
Growing Degree Days 14 (Base 50)    
Moisture  
Dew Point 53 °F    
Average Humidity 69    
Maximum Humidity 97    
Minimum Humidity 43    
Precipitation  
Precipitation 0.00 in - - ()
Sea Level Pressure  
Sea Level Pressure 30.05 in    
Wind  
Wind Speed 4 mph (NW)    
Max Wind Speed 16 mph    
Max Gust Speed 22 mph    
Visibility 10 miles    
Events      
Averages and records for this station are not official NWS values.
T = Trace of Precipitation, MM = Missing Value Source: NWS Daily Summary

Daily Weather History Graph

Daily Weather History Graph

Search for Another Location

Airport or City:

Trip Planner

Search our weather history database for the weather conditions in past years. The results will help you decide how hot, cold, wet, or windy it might be!

Date:

Astronomy

Aug. 09, 2013 Rise Set
Actual Time 5:57 AM CDT 8:20 PM CDT
Civil Twilight 5:24 AM CDT 8:53 PM CDT
Nautical Twilight 4:43 AM CDT 9:34 PM CDT
Astronomical Twilight 3:56 AM CDT 10:20 PM CDT
Moon 8:55 AM CDT (8/9) 9:17 PM CDT (8/9)
Length of Visible Light 15h 28m
Length of Day
14h 22m
Waxing Crescent, 8% of the Moon is Illuminated
Aug 9
Waxing Crescent
Aug 14
First Quarter
Aug 20
Full
Aug 28
Last Quarter
Sep 5
New

Hourly Weather History & Observations

Time (CDT) Temp. Dew Point Humidity Pressure Visibility Wind Dir Wind Speed Gust Speed Precip Events Conditions
12:15 AM 58.1 °F 55.9 °F 93% 30.01 in 10.0 mi Calm Calm - N/A   Overcast
12:35 AM 58.1 °F 56.3 °F 94% 30.02 in 10.0 mi Calm Calm - N/A   Overcast
12:55 AM 58.5 °F 56.7 °F 94% 30.01 in 10.0 mi Calm Calm - N/A   Overcast
1:15 AM 59.0 °F 56.5 °F 91% 30.01 in 10.0 mi Calm Calm - N/A   Overcast
1:35 AM 59.0 °F 56.8 °F 93% 30.01 in 10.0 mi Calm Calm - N/A   Overcast
1:55 AM 58.5 °F 56.5 °F 93% 30.01 in 10.0 mi Calm Calm - N/A   Scattered Clouds
2:15 AM 57.2 °F 55.6 °F 94% 30.01 in 10.0 mi Calm Calm - N/A   Scattered Clouds
2:35 AM 56.1 °F 54.5 °F 94% 30.01 in 3.0 mi Calm Calm - N/A   Scattered Clouds
2:55 AM 57.2 °F 56.1 °F 96% 30.01 in 10.0 mi Calm Calm - N/A   Overcast
3:15 AM 58.1 °F 56.7 °F 95% 30.00 in 10.0 mi Calm Calm - N/A   Overcast
3:35 AM 57.4 °F 55.6 °F 94% 30.00 in 10.0 mi SSW 3.5 mph - N/A   Mostly Cloudy
3:55 AM 56.7 °F 55.6 °F 96% 30.01 in 10.0 mi Calm Calm - N/A   Scattered Clouds
4:15 AM 57.4 °F 56.3 °F 96% 30.01 in 10.0 mi WSW 3.5 mph - N/A   Scattered Clouds
4:35 AM 56.7 °F 55.4 °F 96% 30.00 in 10.0 mi Calm Calm - N/A   Scattered Clouds
4:55 AM 57.7 °F 56.5 °F 96% 30.00 in 10.0 mi Calm Calm - N/A   Scattered Clouds
5:15 AM 57.7 °F 56.5 °F 96% 30.01 in 10.0 mi WNW 4.6 mph - N/A   Scattered Clouds
5:35 AM 57.2 °F 55.9 °F 96% 30.01 in 10.0 mi West 3.5 mph - N/A   Clear
5:55 AM 57.2 °F 56.1 °F 96% 30.00 in 10.0 mi Calm Calm - N/A   Clear
6:15 AM 57.2 °F 56.1 °F 96% 30.01 in 10.0 mi NNW 3.5 mph - N/A   Clear
6:35 AM 56.8 °F 55.8 °F 96% 30.01 in 10.0 mi NW 3.5 mph - N/A   Clear
6:55 AM 57.2 °F 56.3 °F 97% 30.02 in 10.0 mi NW 4.6 mph - N/A   Clear
7:15 AM 58.1 °F 57.0 °F 96% 30.02 in 10.0 mi NW 4.6 mph - N/A   Clear
7:35 AM 59.0 °F 57.4 °F 94% 30.02 in 10.0 mi NNW 4.6 mph - N/A   Clear
7:55 AM 59.9 °F 56.7 °F 89% 30.02 in 10.0 mi NW 4.6 mph - N/A   Clear
8:15 AM 61.0 °F 56.1 °F 84% 30.03 in 10.0 mi Calm Calm - N/A   Clear
8:35 AM 63.0 °F 55.2 °F 76% 30.03 in 10.0 mi WNW 4.6 mph - N/A   Clear
8:55 AM 64.6 °F 52.5 °F 65% 30.03 in 10.0 mi NW 6.9 mph - N/A   Clear
9:15 AM 65.7 °F 50.9 °F 59% 30.04 in 10.0 mi WNW 10.4 mph - N/A   Scattered Clouds
9:35 AM 65.7 °F 49.1 °F 55% 30.04 in 10.0 mi NW 11.5 mph 16.1 mph N/A   Scattered Clouds
9:55 AM 65.5 °F 47.7 °F 53% 30.04 in 10.0 mi NW 12.7 mph 17.3 mph N/A   Scattered Clouds
10:15 AM 67.1 °F 46.9 °F 48% 30.05 in 10.0 mi NW 16.1 mph - N/A   Scattered Clouds
10:35 AM 67.8 °F 49.1 °F 51% 30.05 in 10.0 mi NW 12.7 mph 16.1 mph N/A   Clear
10:55 AM 68.0 °F 49.1 °F 51% 30.05 in 10.0 mi WNW 13.8 mph 19.6 mph N/A   Scattered Clouds
11:15 AM 67.8 °F 48.7 °F 50% 30.05 in 10.0 mi NW 10.4 mph - N/A   Scattered Clouds
11:35 AM 68.4 °F 49.1 °F 50% 30.05 in 10.0 mi WNW 11.5 mph 19.6 mph N/A   Scattered Clouds
11:55 AM 69.3 °F 48.9 °F 48% 30.05 in 10.0 mi WNW 13.8 mph 19.6 mph N/A   Scattered Clouds
12:15 PM 68.9 °F 48.6 °F 48% 30.05 in 10.0 mi WNW 15.0 mph 21.9 mph N/A   Clear
12:35 PM 70.0 °F 48.6 °F 46% 30.05 in 10.0 mi NW 16.1 mph 21.9 mph N/A   Scattered Clouds
12:55 PM 70.2 °F 48.7 °F 46% 30.04 in 10.0 mi WNW 11.5 mph - N/A   Scattered Clouds
1:15 PM 70.3 °F 49.6 °F 48% 30.04 in 10.0 mi West 11.5 mph - N/A   Scattered Clouds
1:35 PM 70.5 °F 48.9 °F 46% 30.04 in 10.0 mi West 11.5 mph 20.7 mph N/A   Scattered Clouds
1:55 PM 71.1 °F 48.6 °F 45% 30.03 in 10.0 mi NW 12.7 mph - N/A   Scattered Clouds
2:15 PM 72.0 °F 48.6 °F 43% 30.04 in 10.0 mi NW 11.5 mph 19.6 mph N/A   Scattered Clouds
2:35 PM 70.2 °F 48.6 °F 46% 30.04 in 10.0 mi NW 9.2 mph 18.4 mph N/A   Mostly Cloudy
2:55 PM 72.7 °F 49.6 °F 44% 30.04 in 10.0 mi WNW 11.5 mph 19.6 mph N/A   Scattered Clouds
3:15 PM 72.5 °F 49.5 °F 44% 30.03 in 10.0 mi WNW 11.5 mph 17.3 mph N/A   Scattered Clouds
3:35 PM 70.3 °F 48.6 °F 46% 30.04 in 10.0 mi NW 9.2 mph - N/A   Scattered Clouds
3:55 PM 72.3 °F 49.1 °F 44% 30.05 in 10.0 mi WNW 11.5 mph - N/A   Scattered Clouds
4:15 PM 70.5 °F 49.1 °F 47% 30.05 in 10.0 mi WNW 9.2 mph - N/A   Mostly Cloudy
4:35 PM 70.2 °F 49.6 °F 48% 30.05 in 10.0 mi WNW 9.2 mph - N/A   Mostly Cloudy
4:55 PM 70.9 °F 49.3 °F 46% 30.05 in 10.0 mi West 8.1 mph - N/A   Mostly Cloudy
5:15 PM 70.9 °F 49.1 °F 46% 30.05 in 10.0 mi WNW 9.2 mph - N/A   Mostly Cloudy
5:35 PM 70.5 °F 50.2 °F 48% 30.05 in 10.0 mi WNW 9.2 mph - N/A   Overcast
5:55 PM 69.1 °F 50.4 °F 51% 30.06 in 10.0 mi WNW 8.1 mph - N/A   Overcast
6:15 PM 68.4 °F 51.1 °F 54% 30.06 in 10.0 mi WNW 8.1 mph - N/A   Overcast
6:35 PM 67.8 °F 50.9 °F 55% 30.06 in 10.0 mi NW 5.8 mph - N/A   Overcast
6:55 PM 67.3 °F 51.1 °F 56% 30.07 in 10.0 mi NNW 5.8 mph - N/A   Overcast
7:15 PM 66.6 °F 51.8 °F 59% 30.07 in 10.0 mi NNW 5.8 mph - N/A   Overcast
7:35 PM 66.2 °F 51.3 °F 59% 30.08 in 10.0 mi NNW 5.8 mph - N/A   Overcast
7:55 PM 65.8 °F 52.0 °F 61% 30.08 in 10.0 mi North 8.1 mph - N/A   Overcast
8:15 PM 64.6 °F 52.7 °F 65% 30.09 in 10.0 mi North 4.6 mph - N/A   Overcast
8:35 PM 64.2 °F 52.7 °F 66% 30.09 in 10.0 mi NNW 4.6 mph - N/A   Overcast
8:55 PM 63.9 °F 52.7 °F 67% 30.10 in 10.0 mi NNW 3.5 mph - N/A   Overcast
9:15 PM 63.7 °F 52.9 °F 68% 30.11 in 10.0 mi NNW 4.6 mph - N/A   Overcast
9:35 PM 63.5 °F 53.2 °F 69% 30.11 in 10.0 mi NNW 3.5 mph - N/A   Overcast
9:55 PM 62.8 °F 53.6 °F 72% 30.11 in 10.0 mi NNW 3.5 mph - N/A   Overcast
10:15 PM 62.6 °F 53.8 °F 73% 30.12 in 10.0 mi NNW 3.5 mph - N/A   Overcast
10:35 PM 62.6 °F 53.2 °F 71% 30.12 in 10.0 mi NNW 4.6 mph - N/A   Overcast
10:55 PM 62.6 °F 52.7 °F 70% 30.12 in 10.0 mi NNW 3.5 mph - N/A   Overcast
11:15 PM 61.7 °F 53.6 °F 75% 30.13 in 10.0 mi NW 3.5 mph - N/A   Overcast
11:35 PM 61.9 °F 53.8 °F 75% 30.13 in 10.0 mi Calm Calm - N/A   Overcast
11:55 PM 61.7 °F 53.8 °F 75% 30.13 in 10.0 mi Calm Calm - N/A   Overcast